[[{"header":{"parameterUnit":"m.s-1","parameterCategory":1,"la1":30.2991,"la2":30.254,"lo1":-89.0895,"lo2":-89.0444,"dy":0.0017,"dx":0.0017,"nx":28,"ny":28,"refTime":"2025-03-18T21:00:00:Z","depth":0,"parameterNumber":2,"parameterNumberName":"U-component_of_WINDS"},"data":[0,0,0,0,0,0,0,0,0,0,0,0,0,0,0,0,0,0,0,0,0,0,0,0,0,0,0,0,0,0,0,0,0,0,0,0,0,0,0,0,0,0,0,0,0,0,0,0,0,0,0,0,0,0,0,0,0,0,6.5256,6.5258,0,6.5396,6.5398,6.5399,6.5342,6.5339,6.5336,6.5333,6.5474,6.5481,6.5488,0,0,0,0,0,0,0,0,0,0,0,0,0,6.4941,6.4947,6.5256,6.5258,6.526,6.5396,6.5398,6.54,6.5343,6.5339,6.5335,6.5331,6.5472,6.548,6.5488,0,0,0,0,0,0,0,0,0,0,0,0,0,6.5079,6.4949,6.5256,6.5248,6.5249,6.5395,6.5398,6.54,6.5344,6.5339,6.5334,6.5329,6.5469,6.5479,6.5489,6.5652,0,0,6.5521,6.5525,0,0,0,0,0,0,0,0,6.5071,6.5091,6.5247,6.5249,6.525,6.5347,6.5338,6.5484,6.5345,6.5308,6.5332,6.5327,6.5436,6.5448,6.5485,6.5658,6.5664,6.5522,6.5528,6.5532,6.5535,0,0,0,0,0,0,0,6.5062,6.5084,6.5311,6.525,6.5251,6.5237,6.5252,6.5366,6.5398,6.531,6.5307,6.5324,6.5435,6.5476,6.5488,6.5667,6.5521,6.553,6.5537,6.5541,6.5982,6.5988,0,0,0,0,0,0,6.5052,6.5077,6.5307,6.5316,6.5146,6.5247,6.5263,6.5321,6.5396,6.5403,6.5328,6.5321,6.5461,6.5476,6.5493,6.569,6.5532,6.5542,6.5548,6.5977,6.5984,6.599,0,0,0,0,0,0,6.5045,6.5073,6.5301,6.5195,6.5223,6.5258,6.5323,6.5326,6.5366,6.541,6.5415,6.5363,6.5457,6.5479,6.5613,6.5694,6.5546,6.5556,6.597,6.5979,6.5987,6.6083,0,0,0,0,0,0,6.5037,6.5071,6.5133,6.5197,6.5229,6.542,6.5328,6.5332,6.5384,6.5376,6.5444,6.5451,6.5455,6.5598,6.5624,6.5705,6.5564,6.5963,6.5974,6.5984,6.6073,6.6094,6.6111,0,0,0,0,0,6.5025,6.5154,6.5136,6.5164,6.5307,6.5424,6.5442,6.5445,6.5391,6.5453,6.5482,6.5448,6.5681,6.5613,6.5641,6.5726,6.5958,6.5971,6.5983,6.6064,6.609,6.6111,0,0,0,0,0,0,6.5097,6.5162,6.5143,6.5296,6.5355,6.5414,6.5493,6.5472,6.5547,6.5536,6.5536,6.5552,6.5692,6.5722,6.5645,6.5889,6.5811,6.583,6.5863,6.5888,6.5907,6.5896,6.5572,0,0,0,0,0,6.513,6.522,6.5272,6.5402,6.5433,6.5458,6.5509,6.5507,6.5568,6.5592,6.563,6.5691,6.5777,6.5834,6.5916,6.6077,6.6092,6.615,6.617,6.6185,6.6201,6.629,6.6317,6.6031,6.6031,6.603,0,0,6.52,6.5247,6.5303,6.5417,6.5463,6.5556,6.5479,6.5581,6.565,6.5607,6.5737,6.5768,6.5835,6.5984,6.6052,6.6014,6.6284,6.6201,6.6213,6.6221,6.6306,6.6333,6.6357,6.6039,6.6038,6.6036,0,0,6.5375,6.542,6.5533,6.5581,6.5652,6.5668,6.5696,6.576,6.5778,6.5909,6.588,6.5962,6.6111,6.6161,6.6206,6.6404,6.6376,6.6431,6.6531,6.6618,6.6641,6.6661,6.6732,6.6758,6.6446,6.6447,6.6447,0,6.5453,6.5593,6.5594,6.5699,6.5751,6.5718,6.5834,6.588,6.5973,6.601,6.5967,6.6155,6.6198,6.6359,6.6408,6.6445,6.6477,6.6422,6.6637,6.6658,6.6676,6.6744,6.6771,6.6453,6.6452,6.6452,6.6451,0,6.5686,6.5783,6.5867,6.5959,6.602,6.613,6.6149,6.621,6.6203,6.6225,6.636,6.641,6.6503,6.6541,6.6535,6.6703,6.6677,6.6636,6.6558,6.671,6.6774,6.68,6.6462,6.646,6.6458,6.6456,0,0,6.5908,6.6002,6.6033,6.6075,6.6152,6.6227,6.6336,6.6428,6.6481,6.6548,6.6639,6.6768,6.6731,6.6782,6.6781,6.6858,6.7013,6.6807,6.6809,6.6844,6.7202,6.7233,6.7263,6.6995,6.7,6.7004,6.7197,0,6.6089,6.6281,6.6287,6.6462,6.6552,6.6524,6.6619,6.6677,6.6701,6.6781,6.6807,6.6898,6.6842,6.6873,6.6948,6.6978,6.7084,6.6964,6.7081,6.7085,6.7065,6.7296,6.7328,6.7507,6.7221,6.7226,6.7229,0,6.6326,6.6402,6.6586,6.6652,6.669,6.6776,6.6861,6.6939,6.7004,6.7016,6.7075,6.7063,6.7176,6.7095,6.725,6.7168,6.7217,6.7239,6.7246,6.7257,6.7166,6.7313,6.7564,6.7591,6.7268,6.7265,6.7262,0,6.6471,6.6618,6.6748,6.6785,6.6865,6.6926,6.6962,6.7023,6.7078,6.7153,6.719,6.7277,6.7324,6.7392,6.7405,6.7345,6.7561,6.7481,6.7574,6.7574,6.762,6.7617,6.7883,6.7652,6.7651,6.7651,6.765,0,6.6673,6.6787,6.6814,6.6894,6.7022,6.7028,6.7155,6.7186,6.7241,6.7327,6.7307,6.7388,6.74,6.7485,6.7495,6.7623,6.7644,6.7658,6.7659,6.7659,6.7658,6.7691,6.7678,6.7658,6.7657,6.7655,6.7654,0,6.6855,6.6878,6.7018,6.7083,6.7102,6.7193,6.7249,6.7326,6.7348,6.7457,6.7483,6.7519,6.7617,6.7637,6.7753,6.776,6.7913,6.7901,6.7891,6.7889,6.7982,6.7973,6.8278,6.8318,6.8061,6.8063,6.8066,0,6.6982,6.707,6.7145,6.7201,6.7241,6.7332,6.7389,6.7399,6.746,6.7543,6.761,6.7706,6.7784,6.7943,6.7979,6.8069,6.806,6.816,6.8073,6.8071,6.8062,6.8056,6.8066,6.8177,6.818,6.8182,6.8184,0,6.7206,6.7214,6.7297,6.7386,6.7455,6.7524,6.7591,6.7638,6.7658,6.7727,6.7828,6.7888,6.8008,6.8104,6.8194,6.8231,6.8212,6.8211,6.8238,6.8239,6.8229,6.8236,6.7936,6.8204,6.8202,6.82,6.8199,6.8198,6.7365,6.7442,6.7508,6.7602,6.7653,6.7716,6.7792,6.7825,6.791,6.8008,6.8009,6.812,6.8186,6.8304,6.8348,6.8435,6.8403,6.8441,6.8451,6.846,6.8469,6.8216,6.8451,6.845,6.845,6.8449,6.8449,0,6.7589,6.763,6.7716,6.7811,6.7885,6.7861,6.7934,6.7997,6.8095,6.8158,6.8236,6.8353,6.8447,6.8492,6.8585,6.8646,6.8639,6.867,6.8666,6.8675,6.8491,6.8459,6.8674,6.8674,6.8674,6.8674,6.8674,6.8674,6.7714,6.7843,6.7859,6.8014,6.8055,6.8164,6.8207,6.8266,6.8316,6.8448,6.8527,6.8555,6.8611,6.8709,6.8795,6.8805,6.8841,6.8876,6.8883,6.871,6.8687,6.8666,6.8636,6.8884,6.8884,6.9059,6.906,6.9062]},{"header":{"parameterUnit":"m.s-1","parameterCategory":1,"la1":30.2991,"la2":30.254,"lo1":-89.0895,"lo2":-89.0444,"dy":0.0017,"dx":0.0017,"nx":28,"ny":28,"refTime":"2025-03-18T21:00:00:Z","depth":0,"parameterNumber":3,"parameterNumberName":"V-component_of_WINDS"},"data":[0,0,0,0,0,0,0,0,0,0,0,0,0,0,0,0,0,0,0,0,0,0,0,0,0,0,0,0,0,0,0,0,0,0,0,0,0,0,0,0,0,0,0,0,0,0,0,0,0,0,0,0,0,0,0,0,0,0,-7.274,-7.2741,0,-7.2922,-7.2924,-7.2926,-7.2882,-7.2878,-7.2874,-7.2871,-7.3055,-7.3063,-7.3072,0,0,0,0,0,0,0,0,0,0,0,0,0,-7.235,-7.2358,-7.2739,-7.2742,-7.2744,-7.2922,-7.2924,-7.2927,-7.2882,-7.2878,-7.2874,-7.2869,-7.3053,-7.3062,-7.3072,0,0,0,0,0,0,0,0,0,0,0,0,0,-7.2525,-7.236,-7.2739,-7.2743,-7.2745,-7.2921,-7.2924,-7.2927,-7.2883,-7.2878,-7.2872,-7.2867,-7.305,-7.3062,-7.3074,-7.3256,0,0,-7.3111,-7.3117,0,0,0,0,0,0,0,0,-7.2515,-7.2539,-7.274,-7.2743,-7.2746,-7.2874,-7.2855,-7.3038,-7.2884,-7.2831,-7.2871,-7.2865,-7.2999,-7.3015,-7.3061,-7.3265,-7.3272,-7.3112,-7.312,-7.3125,-7.3129,0,0,0,0,0,0,0,-7.2503,-7.2531,-7.2812,-7.2743,-7.2747,-7.2735,-7.2754,-7.2889,-7.2942,-7.2835,-7.2832,-7.2855,-7.3,-7.3049,-7.3065,-7.3275,-7.3112,-7.3123,-7.3131,-7.3135,-7.3638,-7.3644,0,0,0,0,0,0,-7.2489,-7.2521,-7.2806,-7.2817,-7.2615,-7.2747,-7.2768,-7.2838,-7.2941,-7.2951,-7.2859,-7.2852,-7.3031,-7.3051,-7.3071,-7.3292,-7.3125,-7.3137,-7.3144,-7.3632,-7.364,-7.3646,0,0,0,0,0,0,-7.248,-7.2514,-7.2798,-7.2669,-7.2704,-7.2759,-7.2838,-7.2844,-7.2894,-7.2959,-7.2968,-7.29,-7.3027,-7.3054,-7.3211,-7.3298,-7.3142,-7.3153,-7.3625,-7.3635,-7.3643,-7.3735,0,0,0,0,0,0,-7.2469,-7.2512,-7.2582,-7.267,-7.2711,-7.2936,-7.2844,-7.2852,-7.2916,-7.2908,-7.3,-7.301,-7.3025,-7.3193,-7.3223,-7.3312,-7.3163,-7.3618,-7.3629,-7.364,-7.3724,-7.3746,-7.3764,0,0,0,0,0,-7.2456,-7.26,-7.2586,-7.262,-7.28,-7.2941,-7.2964,-7.2979,-7.2923,-7.2994,-7.3036,-7.3007,-7.3284,-7.3209,-7.3243,-7.3337,-7.3612,-7.3626,-7.3639,-7.3715,-7.3742,-7.3764,0,0,0,0,0,0,-7.2519,-7.2611,-7.2597,-7.2774,-7.285,-7.2933,-7.3023,-7.3007,-7.3099,-7.3088,-7.3103,-7.3124,-7.3284,-7.3326,-7.3242,-7.3519,-7.344,-7.346,-7.3486,-7.3512,-7.3531,-7.3518,-7.3173,0,0,0,0,0,-7.2554,-7.2661,-7.2736,-7.2885,-7.2924,-7.2967,-7.3029,-7.3034,-7.3113,-7.3145,-7.3198,-7.3275,-7.3379,-7.3448,-7.3547,-7.373,-7.375,-7.3812,-7.3832,-7.3848,-7.3865,-7.3966,-7.3995,-7.369,-7.369,-7.369,0,0,-7.2626,-7.269,-7.2756,-7.2899,-7.2959,-7.3069,-7.2994,-7.3114,-7.3196,-7.3163,-7.3315,-7.3357,-7.3443,-7.3614,-7.3692,-7.3654,-7.3954,-7.3865,-7.3877,-7.3886,-7.3983,-7.4012,-7.4037,-7.3699,-7.3698,-7.3696,0,0,-7.2815,-7.2874,-7.3005,-7.3067,-7.3158,-7.3186,-7.3218,-7.3304,-7.3331,-7.3484,-7.3461,-7.3559,-7.3738,-7.3801,-7.3857,-7.4071,-7.4048,-7.4103,-7.4207,-7.4305,-7.4329,-7.4351,-7.4427,-7.4455,-7.412,-7.4121,-7.4121,0,-7.2893,-7.3059,-7.3074,-7.3197,-7.326,-7.3237,-7.337,-7.3428,-7.3547,-7.3592,-7.3547,-7.3773,-7.383,-7.4015,-7.4068,-7.4114,-7.415,-7.4092,-7.4325,-7.4346,-7.4366,-7.444,-7.4469,-7.4127,-7.4126,-7.4125,-7.4125,0,-7.3151,-7.3267,-7.3362,-7.3479,-7.3553,-7.368,-7.3714,-7.3787,-7.3787,-7.3819,-7.3975,-7.4043,-7.4156,-7.42,-7.42,-7.4387,-7.4361,-7.4321,-7.4241,-7.4401,-7.447,-7.4499,-7.4135,-7.4133,-7.4131,-7.413,0,0,-7.3384,-7.3509,-7.3543,-7.3597,-7.3697,-7.3786,-7.3912,-7.4024,-7.4087,-7.417,-7.4276,-7.4429,-7.4393,-7.4456,-7.4463,-7.4549,-7.4716,-7.4499,-7.4501,-7.4537,-7.4926,-7.4955,-7.4987,-7.4701,-7.4707,-7.4711,-7.4918,0,-7.3582,-7.3805,-7.3823,-7.4023,-7.4131,-7.411,-7.422,-7.4293,-7.4327,-7.4423,-7.446,-7.4569,-7.4513,-7.4551,-7.4635,-7.4677,-7.4794,-7.4663,-7.48,-7.4804,-7.4779,-7.5024,-7.5055,-7.5248,-7.4945,-7.495,-7.4953,0,-7.3842,-7.3935,-7.4147,-7.4233,-7.4278,-7.4377,-7.4481,-7.4573,-7.4656,-7.4674,-7.4746,-7.4742,-7.4871,-7.4787,-7.4965,-7.4876,-7.4933,-7.4962,-7.497,-7.4983,-7.4889,-7.5044,-7.5309,-7.5338,-7.4996,-7.4993,-7.499,0,-7.3992,-7.4169,-7.4319,-7.4365,-7.4469,-7.4539,-7.4585,-7.4662,-7.4729,-7.482,-7.4863,-7.4968,-7.5025,-7.5106,-7.513,-7.5067,-7.5308,-7.5226,-7.5327,-7.5327,-7.5379,-7.5375,-7.5657,-7.5415,-7.5415,-7.5414,-7.5414,0,-7.4211,-7.4341,-7.4388,-7.448,-7.4626,-7.4644,-7.4788,-7.483,-7.49,-7.4999,-7.4988,-7.5082,-7.5107,-7.5206,-7.5225,-7.5371,-7.5396,-7.5415,-7.5418,-7.5416,-7.5414,-7.5454,-7.5441,-7.5422,-7.542,-7.5419,-7.5418,0,-7.4402,-7.4438,-7.4601,-7.4686,-7.4711,-7.4814,-7.4887,-7.4976,-7.5008,-7.5135,-7.5166,-7.5217,-7.5333,-7.5365,-7.5503,-7.5516,-7.5687,-7.5677,-7.5659,-7.5659,-7.5759,-7.5749,-7.6077,-7.6121,-7.585,-7.5852,-7.5854,0,-7.454,-7.464,-7.4737,-7.4803,-7.4853,-7.496,-7.5028,-7.5051,-7.5122,-7.5225,-7.5301,-7.5415,-7.5508,-7.5693,-7.5742,-7.5848,-7.5842,-7.5949,-7.5857,-7.5852,-7.5844,-7.5838,-7.5848,-7.5966,-7.5969,-7.5972,-7.5974,0,-7.478,-7.4794,-7.4893,-7.4999,-7.5081,-7.5166,-7.5246,-7.5301,-7.5335,-7.5416,-7.5535,-7.5607,-7.5749,-7.5862,-7.597,-7.6016,-7.6002,-7.6002,-7.6031,-7.603,-7.6015,-7.6025,-7.5707,-7.5995,-7.5992,-7.5991,-7.599,-7.5989,-7.495,-7.5038,-7.512,-7.5231,-7.5295,-7.5371,-7.5459,-7.5503,-7.5603,-7.5721,-7.5728,-7.5857,-7.5937,-7.608,-7.6133,-7.6233,-7.6201,-7.6243,-7.6254,-7.6264,-7.6273,-7.6,-7.6253,-7.6252,-7.6252,-7.6251,-7.6251,0,-7.519,-7.5242,-7.5344,-7.5459,-7.5546,-7.5525,-7.5614,-7.5688,-7.5802,-7.5879,-7.5971,-7.6108,-7.6218,-7.6276,-7.6386,-7.6455,-7.6451,-7.6483,-7.6479,-7.649,-7.6295,-7.6259,-7.6485,-7.6485,-7.6485,-7.6485,-7.6485,-7.6485,-7.5325,-7.5474,-7.5497,-7.5678,-7.5729,-7.5856,-7.5908,-7.5979,-7.604,-7.6194,-7.6286,-7.6323,-7.6393,-7.6508,-7.6608,-7.6622,-7.6663,-7.67,-7.671,-7.6527,-7.6503,-7.6481,-7.6447,-7.6709,-7.6709,-7.6897,-7.6898,-7.69]}]]